CZ-2C R/B

Last updated on Thu Nov 21 2024 00:02:13 GMT+0000 (Coordinated Universal Time)

1 52794U 22058K 24325.63183021 .00021805 00000+0 69298-3 0 9996 2 52794 50.1947 189.5279 0068980 42.7487 317.8810 15.30208918137016
UTC large
Height (km)
Speed (km/s)
/
Latitude / Longitude
Inclination (degrees)
Orbital Period (minutes)
Azimuth
Elevation
Range (km)
Doppler Factor

Next 0 passes for location: London (51.5072 / 0.1276)

Sorry there are no passes over London.